軌道要素
Epoch 2017 Nov. 23.0 TT = JDT 2458080.5
T 2017 Nov. 26.38983 TT Rudenko
q 6.9276226 (2000.0) P Q
z -0.0007680 Peri. 134.91756 -0.87746031 -0.22766586
+/-0.0000034 Node 38.66793 -0.22114000 -0.58902662
e 1.0053204 Incl. 42.50775 +0.42562953 -0.77538113
From 63 observations 2017 Mar. 31-2019 Mar. 6, mean residual 0".5.
|